P/2007 V2 ( Hill )

Japanese version
Home page
Total 5,708 html files since Dec. 4, 1995
Updated on April 20, 2008

---------------------------------------------------------------------

* Profile

Discovery Date November 9, 2007
Magnitude 19 mag
Discoverer R. E. Hill (Mt. Lemmon Survey)

* Pictures

* Orbital Elements

T 2007 July 30.9320 TT                                  MPC
q   2.774731             (2000.0)            P               Q
n   0.1201318      Peri.  278.5245      +0.9480005      -0.3154228
a   4.067842       Node    99.8701      +0.3063322      +0.8680843
e   0.317886       Incl.    2.4706      +0.0863467      +0.3833251
P   8.20
From 59 observations 2007 Oct. 14-Dec. 8.

* Magnitudes Graph

        m1 = 13.5 + 5 log d + 10.0 log r

---------------------------------------------------------------------

The orbital elements are published on M.P.E.C. 2007-X46.
The magnitudes graphs are made with Comet for Windows.

---------------------------------------------------------------------

Copyright(C) 1995-2007 Seiichi Yoshida (comet@aerith.net). All rights reserved.